RYR63LL LICA-LROP

Flight info

Callsign RYR63LL
Flight time 1h 27m
Altitude 38000
Route CRN L869 KOGEB DCT CRN DCT GOKEL DCT VELBA T343 BLO Q24 SOMOV DCT SORDU
Aircraft B738/M-SDE3FGILRWY/SB1

Departure

Time 2026-04-30 10:10
Airport Lamezia Terme Sant'Eufemia International Airport (LICA)

Arrival

Time 2026-04-30 11:37
Airport Bucharest Henri Coandă International Airport (LROP)
Time Latitude Longitude Altitude Speed Heading
2026-04-30 09:29 38.90875 16.24448 29 ft 0 kts 54°
2026-04-30 10:02 38.90874 16.24462 31 ft 2 kts 129°
2026-04-30 10:02 38.90864 16.24462 30 ft 2 kts 187°
2026-04-30 10:02 38.90847 16.24458 31 ft 3 kts 189°
2026-04-30 10:03 38.90823 16.24452 31 ft 5 kts 196°
2026-04-30 10:03 38.90813 16.24414 31 ft 5 kts 276°
2026-04-30 10:03 38.90820 16.24370 31 ft 5 kts 281°
2026-04-30 10:03 38.90826 16.24326 29 ft 5 kts 279°
2026-04-30 10:04 38.90831 16.24282 31 ft 5 kts 279°
2026-04-30 10:04 38.90825 16.24239 30 ft 5 kts 242°
2026-04-30 10:04 38.90799 16.24193 31 ft 8 kts 233°
2026-04-30 10:04 38.90778 16.24119 31 ft 11 kts 269°
2026-04-30 10:05 38.90789 16.24013 31 ft 13 kts 278°
2026-04-30 10:05 38.90803 16.23893 31 ft 14 kts 278°
2026-04-30 10:05 38.90816 16.23776 31 ft 13 kts 278°
2026-04-30 10:05 38.90829 16.23663 30 ft 13 kts 278°
2026-04-30 10:06 38.90842 16.23552 31 ft 12 kts 278°
2026-04-30 10:06 38.90854 16.23445 31 ft 12 kts 278°
2026-04-30 10:06 38.90867 16.23340 31 ft 12 kts 278°
2026-04-30 10:06 38.90879 16.23238 31 ft 11 kts 277°
2026-04-30 10:07 38.90871 16.23139 31 ft 11 kts 259°
2026-04-30 10:07 38.90843 16.23043 31 ft 13 kts 240°
2026-04-30 10:07 38.90797 16.22957 32 ft 10 kts 235°
2026-04-30 10:07 38.90752 16.22911 32 ft 8 kts 200°
2026-04-30 10:08 38.90705 16.22935 32 ft 8 kts 127°
2026-04-30 10:08 38.90684 16.22997 33 ft 7 kts 101°
2026-04-30 10:08 38.90682 16.23018 32 ft 0 kts 99°
2026-04-30 10:08 38.90681 16.23021 33 ft 2 kts 99°
2026-04-30 10:09 38.90667 16.23138 36 ft 37 kts 98°
2026-04-30 10:09 38.90597 16.23749 30 ft 100 kts 98°
2026-04-30 10:09 38.90472 16.24857 37 ft 148 kts 97°
2026-04-30 10:09 38.90304 16.26189 547 ft 145 kts 97°
2026-04-30 10:10 38.90126 16.27518 941 ft 158 kts 97°
2026-04-30 10:10 38.89915 16.28907 1356 ft 170 kts 99°
2026-04-30 10:10 38.89677 16.30521 1608 ft 197 kts 100°
2026-04-30 10:10 38.89403 16.32376 1826 ft 219 kts 101°
2026-04-30 10:11 38.89111 16.34350 2101 ft 234 kts 101°
2026-04-30 10:11 38.88794 16.36501 2379 ft 251 kts 101°
2026-04-30 10:11 38.88471 16.38712 2864 ft 259 kts 101°
2026-04-30 10:11 38.88139 16.40985 3682 ft 262 kts 101°
2026-04-30 10:12 38.87796 16.43340 4252 ft 274 kts 102°
2026-04-30 10:12 38.87445 16.45764 4958 ft 277 kts 102°
2026-04-30 10:12 38.87086 16.48223 5675 ft 281 kts 102°
2026-04-30 10:12 38.86720 16.50734 6221 ft 293 kts 101°
2026-04-30 10:13 38.86340 16.53328 6836 ft 300 kts 102°
2026-04-30 10:13 38.85946 16.55942 7604 ft 301 kts 102°
2026-04-30 10:13 38.85536 16.58582 8379 ft 302 kts 102°
2026-04-30 10:13 38.85123 16.61236 9182 ft 305 kts 102°
2026-04-30 10:14 38.84955 16.63972 9824 ft 314 kts 81°
2026-04-30 10:14 38.85628 16.66638 10432 ft 319 kts 65°
2026-04-30 10:14 38.87522 16.72193 11024 ft 356 kts 64°
2026-04-30 10:15 38.88526 16.75118 11664 ft 361 kts 64°
2026-04-30 10:15 38.89534 16.78087 12377 ft 364 kts 64°
2026-04-30 10:15 38.90546 16.81087 13140 ft 368 kts 64°
2026-04-30 10:15 38.91565 16.84124 13860 ft 373 kts 64°
2026-04-30 10:16 38.92594 16.87205 14549 ft 377 kts 64°
2026-04-30 10:16 38.93632 16.90317 15238 ft 381 kts 64°
2026-04-30 10:16 38.94677 16.93457 15951 ft 384 kts 64°
2026-04-30 10:17 38.96796 16.99834 17388 ft 392 kts 64°
2026-04-30 10:17 38.98956 17.06338 18713 ft 400 kts 63°
2026-04-30 10:17 39.00418 17.09366 19201 ft 399 kts 43°
2026-04-30 10:18 39.02413 17.11745 19867 ft 397 kts 37°
2026-04-30 10:18 39.04509 17.14131 20521 ft 399 kts 37°
2026-04-30 10:18 39.06600 17.16508 21092 ft 403 kts 37°
2026-04-30 10:19 39.10793 17.21309 22243 ft 409 kts 38°
2026-04-30 10:19 39.12924 17.23770 22818 ft 413 kts 38°
2026-04-30 10:19 39.15063 17.26251 23384 ft 416 kts 38°
2026-04-30 10:19 39.17219 17.28760 23894 ft 419 kts 38°
2026-04-30 10:20 39.19388 17.31288 24368 ft 422 kts 39°
2026-04-30 10:20 39.23757 17.36394 25318 ft 426 kts 39°
2026-04-30 10:20 39.25956 17.38968 25782 ft 428 kts 39°
2026-04-30 10:21 39.28171 17.41561 26212 ft 431 kts 39°
2026-04-30 10:21 39.30394 17.44167 26654 ft 433 kts 39°
2026-04-30 10:21 39.32631 17.46790 27060 ft 436 kts 39°
2026-04-30 10:21 39.34878 17.49428 27477 ft 438 kts 39°
2026-04-30 10:22 39.37139 17.52085 27885 ft 441 kts 39°
2026-04-30 10:22 39.39413 17.54759 28294 ft 443 kts 39°
2026-04-30 10:22 39.41699 17.57450 28675 ft 446 kts 39°
2026-04-30 10:22 39.43995 17.60155 29058 ft 448 kts 39°
2026-04-30 10:23 39.46304 17.62878 29436 ft 450 kts 39°
2026-04-30 10:23 39.48623 17.65615 29798 ft 452 kts 39°
2026-04-30 10:23 39.50955 17.68371 30148 ft 455 kts 39°
2026-04-30 10:23 39.53297 17.71140 30446 ft 457 kts 39°
2026-04-30 10:24 39.55648 17.73924 30773 ft 458 kts 39°
2026-04-30 10:24 39.58002 17.76714 31054 ft 460 kts 39°
2026-04-30 10:24 39.60374 17.79526 31301 ft 463 kts 39°
2026-04-30 10:24 39.62756 17.82354 31548 ft 465 kts 39°
2026-04-30 10:25 39.65145 17.85194 31870 ft 466 kts 39°
2026-04-30 10:25 39.67530 17.88032 32269 ft 464 kts 39°
2026-04-30 10:25 39.69904 17.90861 32662 ft 463 kts 39°
2026-04-30 10:25 39.72273 17.93686 33006 ft 463 kts 39°
2026-04-30 10:26 39.74644 17.96514 33366 ft 462 kts 39°
2026-04-30 10:26 39.77007 17.99336 33740 ft 461 kts 39°
2026-04-30 10:26 39.79366 18.02157 34068 ft 461 kts 39°
2026-04-30 10:26 39.81724 18.04978 34352 ft 461 kts 39°
2026-04-30 10:27 39.84080 18.07799 34621 ft 461 kts 39°
2026-04-30 10:27 39.86436 18.10623 34899 ft 460 kts 39°
2026-04-30 10:27 39.88787 18.13445 35166 ft 460 kts 39°
2026-04-30 10:27 39.91141 18.16272 35434 ft 460 kts 39°
2026-04-30 10:28 39.93494 18.19101 35653 ft 461 kts 39°
2026-04-30 10:28 39.95850 18.21936 35904 ft 461 kts 39°
2026-04-30 10:28 39.98201 18.24769 36197 ft 460 kts 39°
2026-04-30 10:28 40.00518 18.27564 36462 ft 459 kts 39°
2026-04-30 10:29 40.02863 18.30396 36689 ft 460 kts 39°
2026-04-30 10:29 40.05242 18.33269 36922 ft 460 kts 39°
2026-04-30 10:29 40.07555 18.36067 37167 ft 459 kts 39°
2026-04-30 10:29 40.09927 18.38940 37458 ft 458 kts 38°
2026-04-30 10:30 40.12230 18.41731 37709 ft 458 kts 38°
2026-04-30 10:30 40.14564 18.44562 37896 ft 458 kts 38°
2026-04-30 10:30 40.16905 18.47404 38044 ft 460 kts 38°
2026-04-30 10:30 40.19251 18.50253 38070 ft 461 kts 38°
2026-04-30 10:31 40.23943 18.55966 38077 ft 459 kts 38°
2026-04-30 10:31 40.28611 18.61661 38076 ft 459 kts 38°
2026-04-30 10:32 40.33268 18.67353 38066 ft 457 kts 38°
2026-04-30 10:32 40.37911 18.73039 38073 ft 456 kts 38°
2026-04-30 10:33 40.42537 18.78715 38086 ft 455 kts 38°
2026-04-30 10:33 40.47171 18.84411 38079 ft 457 kts 38°
2026-04-30 10:34 40.51816 18.90135 38067 ft 458 kts 38°
2026-04-30 10:34 40.56471 18.95880 38077 ft 460 kts 38°
2026-04-30 10:35 40.60698 19.02258 38082 ft 469 kts 55°
2026-04-30 10:35 40.63706 19.09949 38068 ft 475 kts 61°
2026-04-30 10:36 40.66562 19.17812 38069 ft 477 kts 61°
2026-04-30 10:36 40.69458 19.25705 38062 ft 479 kts 61°
2026-04-30 10:37 40.72395 19.33611 38065 ft 481 kts 60°
2026-04-30 10:37 40.75351 19.41548 38069 ft 483 kts 61°
2026-04-30 10:38 40.78315 19.49524 38064 ft 485 kts 60°
2026-04-30 10:38 40.81281 19.57533 38067 ft 486 kts 61°
2026-04-30 10:39 40.84247 19.65568 38061 ft 487 kts 61°
2026-04-30 10:39 40.87211 19.73620 38066 ft 488 kts 61°
2026-04-30 10:40 40.90171 19.81684 38086 ft 487 kts 61°
2026-04-30 10:40 40.93123 19.89749 38065 ft 487 kts 61°
2026-04-30 10:41 40.96063 19.97805 38061 ft 485 kts 61°
2026-04-30 10:41 40.98986 20.05835 38068 ft 483 kts 61°
2026-04-30 10:42 41.01873 20.13788 38056 ft 482 kts 61°
2026-04-30 10:42 41.04764 20.21776 38073 ft 480 kts 61°
2026-04-30 10:43 41.07641 20.29742 38079 ft 479 kts 61°
2026-04-30 10:43 41.10511 20.37701 38061 ft 477 kts 61°
2026-04-30 10:44 41.13358 20.45636 38072 ft 476 kts 61°
2026-04-30 10:44 41.16199 20.53574 38075 ft 476 kts 61°
2026-04-30 10:45 41.19039 20.61530 38048 ft 477 kts 61°
2026-04-30 10:45 41.21874 20.69496 38082 ft 478 kts 61°
2026-04-30 10:46 41.24236 20.76147 38090 ft 480 kts 62°
2026-04-30 10:46 41.27083 20.84183 38063 ft 481 kts 61°
2026-04-30 10:47 41.29931 20.92248 38085 ft 483 kts 62°
2026-04-30 10:47 41.32786 21.00353 38070 ft 484 kts 62°
2026-04-30 10:48 41.35638 21.08479 38082 ft 485 kts 62°
2026-04-30 10:48 41.38493 21.16632 38088 ft 486 kts 62°
2026-04-30 10:49 41.41343 21.24795 38084 ft 486 kts 62°
2026-04-30 10:49 41.44183 21.32955 38109 ft 485 kts 62°
2026-04-30 10:50 41.47010 21.41101 38110 ft 484 kts 62°
2026-04-30 10:50 41.49829 21.49244 38133 ft 484 kts 62°
2026-04-30 10:51 41.52650 21.57416 38149 ft 485 kts 62°
2026-04-30 10:51 41.55466 21.65602 38135 ft 484 kts 62°
2026-04-30 10:52 41.58262 21.73752 38151 ft 481 kts 62°
2026-04-30 10:52 41.61018 21.81811 38162 ft 479 kts 63°
2026-04-30 10:53 41.63778 21.89899 38178 ft 478 kts 63°
2026-04-30 10:53 41.66526 21.97983 38170 ft 477 kts 63°
2026-04-30 10:54 41.69273 22.06081 38169 ft 479 kts 63°
2026-04-30 10:54 41.72026 22.14220 38171 ft 481 kts 63°
2026-04-30 10:55 41.74789 22.22415 38151 ft 484 kts 63°
2026-04-30 10:55 41.77561 22.30663 38155 ft 487 kts 63°
2026-04-30 10:56 41.80344 22.38968 38164 ft 489 kts 63°
2026-04-30 10:56 41.83132 22.47314 38150 ft 492 kts 63°
2026-04-30 10:57 41.85937 22.55733 38122 ft 496 kts 63°
2026-04-30 10:57 41.88718 22.64119 38117 ft 487 kts 63°
2026-04-30 10:58 41.91461 22.72402 38135 ft 484 kts 63°
2026-04-30 10:58 41.94187 22.80658 38150 ft 483 kts 63°
2026-04-30 10:59 41.97265 22.88612 38168 ft 477 kts 50°
2026-04-30 10:59 42.01641 22.95143 38177 ft 468 kts 39°
2026-04-30 11:00 42.06429 23.00975 38218 ft 467 kts 34°
2026-04-30 11:00 42.11598 23.06500 38196 ft 475 kts 32°
2026-04-30 11:01 42.16772 23.11990 38184 ft 478 kts 33°
2026-04-30 11:01 42.21973 23.17615 38196 ft 480 kts 33°
2026-04-30 11:02 42.27153 23.23296 38187 ft 481 kts 33°
2026-04-30 11:02 42.32346 23.29006 38183 ft 481 kts 33°
2026-04-30 11:03 42.37523 23.34710 38190 ft 480 kts 33°
2026-04-30 11:04 42.45253 23.43246 38187 ft 477 kts 33°
2026-04-30 11:04 42.50380 23.48921 38190 ft 475 kts 33°
2026-04-30 11:05 42.55484 23.54583 38208 ft 473 kts 34°
2026-04-30 11:05 42.60543 23.60211 38184 ft 461 kts 33°
2026-04-30 11:05 42.62978 23.62933 38118 ft 448 kts 33°
2026-04-30 11:06 42.65372 23.65608 37731 ft 444 kts 33°
2026-04-30 11:06 42.67787 23.68297 36795 ft 455 kts 32°
2026-04-30 11:06 42.70269 23.71052 35988 ft 464 kts 31°
2026-04-30 11:06 42.72761 23.73831 35526 ft 462 kts 31°
2026-04-30 11:07 42.75219 23.76590 35208 ft 454 kts 30°
2026-04-30 11:07 42.77630 23.79305 34799 ft 446 kts 29°
2026-04-30 11:07 42.80001 23.81978 34384 ft 441 kts 29°
2026-04-30 11:07 42.82364 23.84633 33857 ft 440 kts 28°
2026-04-30 11:08 42.84727 23.87279 33335 ft 440 kts 28°
2026-04-30 11:08 42.87085 23.89943 32808 ft 441 kts 30°
2026-04-30 11:08 42.89440 23.92627 32299 ft 441 kts 30°
2026-04-30 11:08 42.91805 23.95292 31818 ft 440 kts 30°
2026-04-30 11:09 42.94163 23.97937 31447 ft 437 kts 30°
2026-04-30 11:09 42.96504 24.00568 31082 ft 435 kts 30°
2026-04-30 11:09 42.98827 24.03185 30752 ft 432 kts 31°
2026-04-30 11:09 43.01138 24.05796 30386 ft 430 kts 31°
2026-04-30 11:10 43.03436 24.08398 29984 ft 428 kts 32°
2026-04-30 11:10 43.05716 24.10985 29603 ft 424 kts 32°
2026-04-30 11:10 43.07974 24.13551 29250 ft 420 kts 32°
2026-04-30 11:10 43.10211 24.16096 28888 ft 416 kts 32°
2026-04-30 11:11 43.12425 24.18617 28533 ft 413 kts 32°
2026-04-30 11:11 43.14626 24.21123 28207 ft 410 kts 32°
2026-04-30 11:11 43.16807 24.23610 27835 ft 407 kts 32°
2026-04-30 11:11 43.18980 24.26087 27475 ft 405 kts 32°
2026-04-30 11:12 43.21136 24.28549 27142 ft 402 kts 32°
2026-04-30 11:12 43.23272 24.30991 26803 ft 399 kts 32°
2026-04-30 11:12 43.25396 24.33422 26461 ft 396 kts 33°
2026-04-30 11:12 43.27503 24.35835 26139 ft 393 kts 33°
2026-04-30 11:13 43.29594 24.38233 25817 ft 390 kts 33°
2026-04-30 11:13 43.31671 24.40615 25493 ft 388 kts 33°
2026-04-30 11:13 43.33710 24.42956 25166 ft 386 kts 34°
2026-04-30 11:13 43.35793 24.45350 24833 ft 384 kts 34°
2026-04-30 11:14 43.37808 24.47669 24517 ft 382 kts 34°
2026-04-30 11:14 43.39868 24.50041 24191 ft 380 kts 34°
2026-04-30 11:14 43.41864 24.52341 23882 ft 379 kts 34°
2026-04-30 11:14 43.43909 24.54700 23499 ft 378 kts 35°
2026-04-30 11:15 43.45892 24.56990 23168 ft 376 kts 35°
2026-04-30 11:15 43.47894 24.59304 22813 ft 375 kts 35°
2026-04-30 11:15 43.49884 24.61607 22504 ft 373 kts 35°
2026-04-30 11:15 43.51862 24.63899 22157 ft 371 kts 35°
2026-04-30 11:16 43.53830 24.66180 21859 ft 368 kts 35°
2026-04-30 11:16 43.55786 24.68448 21513 ft 367 kts 36°
2026-04-30 11:16 43.57734 24.70710 21187 ft 365 kts 36°
2026-04-30 11:16 43.59672 24.72962 20869 ft 364 kts 36°
2026-04-30 11:17 43.61601 24.75205 20554 ft 362 kts 36°
2026-04-30 11:17 43.63527 24.77448 20223 ft 361 kts 36°
2026-04-30 11:17 43.65446 24.79683 19896 ft 360 kts 36°
2026-04-30 11:17 43.67357 24.81911 19569 ft 359 kts 36°
2026-04-30 11:18 43.69261 24.84129 19237 ft 357 kts 36°
2026-04-30 11:18 43.73077 24.88518 18563 ft 356 kts 35°
2026-04-30 11:18 43.74992 24.90690 18190 ft 356 kts 35°
2026-04-30 11:19 43.76903 24.92855 17844 ft 354 kts 35°
2026-04-30 11:19 43.78804 24.95012 17480 ft 353 kts 35°
2026-04-30 11:19 43.80698 24.97164 17153 ft 351 kts 35°
2026-04-30 11:19 43.82581 24.99306 16819 ft 349 kts 36°
2026-04-30 11:20 43.84452 25.01439 16490 ft 348 kts 36°
2026-04-30 11:20 43.86315 25.03565 16156 ft 346 kts 36°
2026-04-30 11:20 43.88169 25.05682 15810 ft 345 kts 36°
2026-04-30 11:20 43.90017 25.07796 15491 ft 343 kts 36°
2026-04-30 11:21 43.91854 25.09899 15152 ft 342 kts 36°
2026-04-30 11:21 43.93689 25.12000 14811 ft 341 kts 36°
2026-04-30 11:21 43.95516 25.14095 14475 ft 340 kts 36°
2026-04-30 11:21 43.97338 25.16185 14139 ft 339 kts 36°
2026-04-30 11:22 43.99154 25.18271 13752 ft 338 kts 37°
2026-04-30 11:22 44.00962 25.20349 13391 ft 336 kts 37°
2026-04-30 11:22 44.02758 25.22414 13044 ft 334 kts 37°
2026-04-30 11:22 44.04539 25.24466 12705 ft 332 kts 37°
2026-04-30 11:23 44.06310 25.26506 12363 ft 329 kts 38°
2026-04-30 11:23 44.08057 25.28521 12008 ft 323 kts 38°
2026-04-30 11:23 44.11438 25.32424 11369 ft 312 kts 38°
2026-04-30 11:24 44.13104 25.34349 11039 ft 311 kts 38°
2026-04-30 11:24 44.14763 25.36268 10729 ft 310 kts 38°
2026-04-30 11:24 44.16415 25.38181 10432 ft 308 kts 39°
2026-04-30 11:25 44.19623 25.41899 10206 ft 290 kts 39°
2026-04-30 11:25 44.21158 25.43678 9686 ft 291 kts 39°
2026-04-30 11:25 44.24213 25.47226 9005 ft 281 kts 40°
2026-04-30 11:26 44.27155 25.50646 8404 ft 270 kts 41°
2026-04-30 11:26 44.28586 25.52312 8118 ft 265 kts 42°
2026-04-30 11:26 44.29989 25.53948 7826 ft 261 kts 41°
2026-04-30 11:27 44.31378 25.55566 7551 ft 260 kts 42°
2026-04-30 11:27 44.32770 25.57190 7259 ft 261 kts 42°
2026-04-30 11:27 44.34167 25.58822 6952 ft 263 kts 42°
2026-04-30 11:27 44.35569 25.60459 6655 ft 263 kts 43°
2026-04-30 11:28 44.38385 25.63754 6058 ft 264 kts 44°
2026-04-30 11:28 44.39792 25.65400 5773 ft 263 kts 43°
2026-04-30 11:28 44.41189 25.67033 5530 ft 261 kts 44°
2026-04-30 11:29 44.42567 25.68650 5306 ft 256 kts 43°
2026-04-30 11:29 44.43921 25.70235 5129 ft 251 kts 43°
2026-04-30 11:29 44.46514 25.73278 4853 ft 237 kts 43°
2026-04-30 11:30 44.48963 25.76147 4471 ft 220 kts 43°
2026-04-30 11:30 44.50115 25.77503 4320 ft 215 kts 44°
2026-04-30 11:30 44.51255 25.78846 4128 ft 212 kts 43°
2026-04-30 11:31 44.52363 25.80150 3889 ft 203 kts 43°
2026-04-30 11:31 44.53399 25.81369 3642 ft 192 kts 43°
2026-04-30 11:31 44.54344 25.82609 3398 ft 179 kts 59°
2026-04-30 11:31 44.54585 25.84199 3283 ft 165 kts 91°
2026-04-30 11:32 44.54651 25.85732 3207 ft 154 kts 72°
2026-04-30 11:32 44.54902 25.87155 3043 ft 148 kts 79°
2026-04-30 11:32 44.55036 25.88567 2875 ft 145 kts 79°
2026-04-30 11:33 44.55248 25.91341 2525 ft 145 kts 83°
2026-04-30 11:33 44.55349 25.92714 2333 ft 138 kts 79°
2026-04-30 11:33 44.55451 25.94023 2165 ft 133 kts 79°
2026-04-30 11:33 44.55544 25.95291 2004 ft 128 kts 79°
2026-04-30 11:34 44.55605 25.96133 1888 ft 128 kts 79°
2026-04-30 11:34 44.55696 25.97363 1717 ft 126 kts 79°
2026-04-30 11:34 44.55789 25.98602 1558 ft 130 kts 79°
2026-04-30 11:34 44.55882 25.99861 1387 ft 130 kts 82°
2026-04-30 11:35 44.55958 26.01109 1231 ft 128 kts 77°
2026-04-30 11:35 44.56067 26.02369 1048 ft 130 kts 78°
2026-04-30 11:35 44.56164 26.03631 885 ft 131 kts 79°
2026-04-30 11:35 44.56260 26.04906 706 ft 131 kts 79°
2026-04-30 11:36 44.56354 26.06170 567 ft 129 kts 79°
2026-04-30 11:36 44.56442 26.07402 403 ft 125 kts 79°
2026-04-30 11:36 44.56534 26.08591 321 ft 113 kts 82°
2026-04-30 11:36 44.56602 26.09481 322 ft 71 kts 83°
2026-04-30 11:37 44.56638 26.09965 322 ft 37 kts 84°
2026-04-30 11:37 44.56659 26.10253 322 ft 26 kts 84°
2026-04-30 11:37 44.56677 26.10493 321 ft 24 kts 84°
2026-04-30 11:37 44.56694 26.10706 322 ft 16 kts 77°
2026-04-30 11:38 44.56765 26.10765 321 ft 13 kts 353°
2026-04-30 11:38 44.56850 26.10753 321 ft 9 kts 354°
2026-04-30 11:38 44.56911 26.10744 320 ft 9 kts 354°
2026-04-30 11:38 44.56970 26.10731 321 ft 8 kts 346°
2026-04-30 11:39 44.57015 26.10683 321 ft 8 kts 307°
2026-04-30 11:39 44.57044 26.10616 320 ft 8 kts 300°
2026-04-30 11:39 44.57066 26.10547 320 ft 8 kts 276°
2026-04-30 11:39 44.57065 26.10474 321 ft 7 kts 263°
2026-04-30 11:40 44.57059 26.10404 321 ft 7 kts 263°
2026-04-30 11:40 44.57054 26.10335 321 ft 7 kts 264°
2026-04-30 11:40 44.57049 26.10268 320 ft 7 kts 264°
2026-04-30 11:40 44.57044 26.10200 321 ft 7 kts 264°
2026-04-30 11:41 44.57039 26.10129 321 ft 8 kts 264°
2026-04-30 11:41 44.57032 26.10044 321 ft 10 kts 264°
2026-04-30 11:41 44.57023 26.09927 321 ft 14 kts 264°
2026-04-30 11:41 44.57011 26.09774 321 ft 17 kts 264°
2026-04-30 11:42 44.56997 26.09592 321 ft 20 kts 263°
2026-04-30 11:42 44.56981 26.09403 321 ft 19 kts 263°
2026-04-30 11:42 44.56967 26.09220 321 ft 19 kts 263°
2026-04-30 11:42 44.56954 26.09042 321 ft 18 kts 264°
2026-04-30 11:43 44.56942 26.08871 321 ft 17 kts 264°
2026-04-30 11:43 44.56931 26.08736 321 ft 9 kts 264°
2026-04-30 11:43 44.56920 26.08686 320 ft 4 kts 219°
2026-04-30 11:43 44.56894 26.08682 321 ft 4 kts 174°
2026-04-30 11:44 44.56883 26.08684 320 ft 0 kts 174°
2026-04-30 11:44 44.56879 26.08684 321 ft 1 kts 174°
2026-04-30 11:44 44.56877 26.08684 321 ft 0 kts 174°